CZ-6A DEB, 61813

Orbit data source: Space-Track

CZ-6A DEB, 61813 is space debris in LEO originally from a launch on Tue, 06 Aug 2024 UTC launched from the Taiyaun Space Center, China (TSC). Debris objects in space refer to the collection of defunct objects orbiting the Earth. Examples of debris include non-operational satellites, rocket bodies, and fragments generated from explosions, collisions, or faulty payload assembly.

Loading next visibility...
Identifier
61813, 2024-140ACD
Orbit
LEO
Country
Flag of CNCN / PRC
Related business
Manufacturer
SAST
Mission
Spacecraft
Bus & Motor
Unknown
Mass
Unknown
Launch date (UTC)
2024-08-06 (2 years ago)
Launch vehicle
Unknown
Launch site
Taiyaun Space Center, China (TSC)
Object type
Payload
Rocket body
Debris
Shape & HBR
Unknown shape, 0.1 m
Radar Cross Section
Small (<0.1 m²)

Expand to show TLE details & history
Last TLE update: 2 days ago

TLE from 2 days ago
0 CZ-6A DEB
1 61813U 24140ACD 26170.26749124  .00002931  00000-0  10972-2 0  9997
2 61813  89.1532 285.8331 0065000 211.1922 148.5410 14.30389799 93275
Epoch: 2026-06-19T06:25Z
TLE epoch observation values (Epoch: 2026-06-19T06:25:11.243Z)
Latitude
-0.00002°
Longitude
-77.96266°
Altitude
833.334 km
Speed
7.415 km/s
True Right ascension
19h 03m 19s
True Declination
0° 00' 00"
Sunlit
Object was in full shadow at epoch
Visualization orbit readout
Latitude
Unknown
Longitude
Unknown
Altitude
Unknown
Speed
Unknown
Apparent Right ascension
Unknown
Apparent Declination
Unknown
Sunlit
N/A
Visualization observer readout
Local Sidereal Time
07:21:33
Azimuth
Unknown
Elevation
Unknown
Doppler factor
Unknown
Orbital elements
Apogee altitude
833.939 km
Perigee altitude
740.788 km
Semi-major axis
7,165.501 km
Eccentricity
0.0065
Inclination
89.1532°
RAAN
285.8331°
Arg. of periapsis
211.1922°
True anomaly
148.92705°
Mean anomaly
148.541°
Eccentric anomaly
148.73429°
Mean motion
3.57827 °/min
Orbital period
100.61 mins
BSTAR
0.0010972
Loading maneuver chart data...
Computing Atmospheric mass density...
Loading historical data...
Loading historical data...
Loading historical data...
Loading historical data...
Loading historical data...
Loading historical data...
Loading historical data...

Documentation

Showing up to 5 results
|